7 * 24
多渠道服务支持
STARLINK-36684(NORAD编号68718)是SpaceX星链(Starlink)低轨互联网星座的卫星之一。星链计划旨在构建全球覆盖的天基通信网络,为偏远地区、海洋、航空等场景提供高速互联网服务。该卫星运行在近地轨道,属于SpaceX批量发射的星链卫星群组,延续了星链星座技术迭代方向,依托Ku、Ka频段提供通信服务,助力星座实现更广覆盖与更低时延,目前在轨正常运行,服务全球星链用户,支撑星链全球联网的基础设施建设。
美国
(US)
| 数据来源 | 国际轨道数据 |
| 星历时间: | 2026-05-24T12:00:02+0800 1天前 查看轨道信息 |
| 半长轴: | 6806.433km |
| 偏心率: | 0.0001168 |
| 轨道倾角: | 53.159° |
| 近地点辐角 | 77.766° |
| 升交点赤经 | 43.584° |
| 平近点角 | 63.015° |
| 近地点: | 427.501km |
| 远地点: | 429.091km |
| 周期: | 93.141分钟 |
| 每日圈数: | 15.460496 |